Regional Weather Roundup
Issued by NWS

Home | Current Version | Previous Version | Graphics & Text | Print | Product List | Glossary On
Versions: 1 2 3 4 5 6 7 8 9 10 11 12 13 14 15 16 17 18 19 20 21 22 23 24 25 26 27 28 29 30 31 32 33 34 35 36 37 38 39 40 41 42 43 44 45 46 47 48 49 50
552
ASUS44 KLIX 012010
RWRLA
LOUISIANA WEATHER ROUNDUP
NATIONAL WEATHER SERVICE NEW ORLEANS LA
300 PM CDT MON SEP 01 2014

NOTE: "FAIR" INDICATES FEW OR NO CLOUDS BELOW 12,000 FEET WITH NO
      SIGNIFICANT WEATHER AND/OR OBSTRUCTIONS TO VISIBILITY.
      SKY/WX - SKY CONDITION AND SIGNIFICANT WEATHER.
      TMP - AIR TEMPERATURE.    DP   - DEWPOINT TEMPERATURE.
      RH  - RELATIVE HUMIDITY.  PRES - PRESSURE.
      HX  - HEAT INDEX.         WCI  - WIND CHILL INDEX.

*  THESE STATIONS ARE NOT NWS OR FAA STATIONS AND ARE NOT UNDER
   NWS QUALITY CONTROL.

LAZ040-048-061>063-065-066-069-012100-
SOUTHEAST LOUISIANA

CITY           SKY/WX    TMP DP  RH WIND       PRES   REMARKS
N.O. AUDUBON     N/A     90  78  66 MISG        N/A  HX 104
N.O. INTL ARPT PTSUNNY   90  76  63 SE10      30.01F HX 101
N.O. LAKEFRONT PTSUNNY   84  77  79 E5        30.02F
N.O. DOWNTOWN* MOCLDY    88  75  66 S9        30.01F HX  97
SLIDELL        CLOUDY    88  77  69 E8        30.02F HX 100
BATON ROUGE    MOSUNNY   91  72  53 S14       29.99F HX  98
BOOTHVILLE     PTSUNNY   86  78  77 S12       30.03F HX  98
BELLE CHASSE   TSTM      82  74  76 SE14      30.01S
BOGALUSA*      FAIR      87  72  61 S8        30.04F THUNDER
GALLIANO*      NOT AVBL
NEW ROADS*     TSTM      85  74  68 S13G21    29.99S
GONZALES*      FAIR      87  75  67 S8        29.99F THUNDER HX  96
HAMMOND*       PTSUNNY   90  73  58 SE13      30.03F HX  98
HOUMA*         MOSUNNY   90  75  62 S13       30.01F HX 100
PORT FOURCHON* PTCLDY    88  75  66 S12       30.03F HX  97

$$

LAZ041-044-053-054-012100-
SOUTHWEST LOUISIANA

CITY           SKY/WX    TMP DP  RH WIND       PRES   REMARKS
LAKE CHARLES   PTSUNNY   87  76  69 S9        29.96F HX  97
LAFAYETTE      MOSUNNY   88  74  63 S13       29.98F HX  96
PATTERSON      MOSUNNY   90  77  66 S14       30.02S HX 102
SALT POINT       N/A     91  79  67 VRB7      29.99F HX 107
NEW IBERIA     MOSUNNY   89  76  65 S12       29.99F HX 100
CHENAULT AIRPK PTSUNNY   90  73  58 S12G24    29.97F HX  98

$$

LAZ027-028-012100-
CENTRAL LOUISIANA

CITY           SKY/WX    TMP DP  RH WIND       PRES   REMARKS
FORT POLK      PTSUNNY   87  76  69 S8        29.98F HX  97
ALEXANDRIA INT MOSUNNY   91  75  59 S13       29.95F HX 101
ALEXANDRIA     MOSUNNY   90  76  63 S6        29.98F HX 101

$$

LAZ001-002-012100-
NORTHWEST LOUISIANA

CITY           SKY/WX    TMP DP  RH WIND       PRES   REMARKS
SHREVEPORT     MOSUNNY   94  70  45 S8G16     29.94F HX 100
BARKSDALE AFB  SUNNY     93  73  51 SE13      29.95F HX 101
DTN SHREVEPORT PTSUNNY   89  73  59 SE8       29.95F HX  97

$$

LAZ014-016-012100-
NORTHEAST LOUISIANA

CITY           SKY/WX    TMP DP  RH WIND       PRES   REMARKS
MONROE         MOSUNNY   92  74  55 S10       29.98F HX 101
TALLULAH       PTSUNNY   91  73  55 S10       29.99F HX  99

$$




USA.gov is the U.S. government's official web portal to all federal, state and local government web resources and services.